Starlink 31115

operational
NORAD ID: 58729 Int'l Des: 2024-005 Owner: SPXS Country: US Constellation: starlink
LEOCIRCULAR

关于 Starlink 31115

正在加载描述...

实时位置

正在加载3D地球...

即将过境

高度历史

Altitude vs Time

uPlot chart will show altitude changes over time

两行轨道根数

1 58729U 24005B 25258.23780984 -.00000761 00000-0 -41275-4 0 9994
2 58729 43.0028 94.5869 0001190 270.4004 89.6702 15.02530707 94026
Epoch: Sep 15, 2025 • Age: 7 hours

当前状态

高度 563.2 km
速度 7.58 km/s
星下点 -20.11°S, 105.86°E
发射日期 Jan 7, 2024
运行时间 1.6 years
类型 internet

技术详情

分类 Payload
质量 730.00 kg
干质量 700.00 kg
总质量 730.00 kg
长度 0.30 m
直径 4.10 m
跨度 29.00 m
形状 Box + pan
制造商 SPXS
平台类型 Starlink V2M
阶段状态 In Orbit
所有者/国家 SPXS/US

大型星座

Loading constellations...